Home > Weather > Leer > Past weeks

Flag for Germany Past Weather in Leer, Lower Saxony, Germany — Yesterday and Last 2 Weeks

Now
62 °F

Overcast.


Feels Like: 62 °F
Forecast: 57 / 72 °F
Wind: 6 mph from Northeast

Location: Emden-Koenigspolder

Current Time: May 29, 2016 at 7:31:56 PM

Latest Report: May 29, 2016 at 7:00 PM


Visibility: 7 mi

Pressure: 29.80 "Hg

Humidity: 87%

Dew Point: 58 °F

Location of LeerLocation

Past Weather in Leer — Graph

°F

Leer Temperature Yesterday

Maximum temperature yesterday: 69 °F (at 6:00 PM)
Minimum temperature yesterday: 49 °F (at 4:00 AM)
Average temperature yesterday: 59 °F

High & Low Weather Summary for the Past Weeks

 TemperatureHumidityPressure
High72 °F (May 22, 12:00 PM)100% (May 27, 3:00 AM)30.08 "Hg (May 27, 3:00 AM)
Low41 °F (May 16, 4:00 AM)43% (May 19, 3:00 PM)29.68 "Hg (May 22, 12:00 PM)
Average55 °F81%29.93 "Hg
* Reported May 14 6:00 PM — May 29 6:00 PM, Leer, Weather by CustomWeather, © 2016

Note: Actual official high and low records may vary slightly from our data, if they occured in-between our weather recording intervals... More about our weather records

Advertising

Leer Weather History for the Previous 24 Hours

Scroll right to see more
 ConditionsComfort  
Time TempWeatherWind HumidityBarometerVisibility
6:00 PM
Sun, May 29
62 °FOvercast.7 mph84%29.81 "Hg7 mi
4:00 PM65 °FOvercast.7 mph79%29.83 "Hg5 mi
3:00 PM65 °FOvercast.6 mph75%29.83 "Hg4 mi
1:00 PM64 °FOvercast.6 mph76%29.84 "Hg3 mi
12:00 PM63 °FOvercast.6 mph78%29.85 "Hg3 mi
10:00 AM60 °FLow clouds.6 mph82%29.85 "Hg3 mi
9:00 AM58 °FFog.6 mph86%29.86 "Hg3 mi
7:00 AM56 °FSunny.2 mph94%29.87 "Hg3 mi
6:00 AM54 °FSunny.2 mph94%29.88 "Hg3 mi
4:00 AM56 °FPassing clouds.3 mph91%29.88 "Hg6 mi
3:00 AM57 °FOvercast.3 mph87%29.89 "Hg12 mi
1:00 AM57 °FPassing clouds.3 mph86%29.91 "Hg11 mi
12:00 AM57 °FOvercast.2 mph88%29.92 "Hg8 mi
10:00 PM
Sat, May 28
60 °FPassing clouds.3 mph81%29.92 "Hg11 mi
9:00 PM64 °FScattered clouds.3 mph71%29.92 "Hg15 mi
7:00 PM69 °FSunny.5 mph64%29.92 "Hg7 mi
Weather by CustomWeather, © 2016

See weather overviewHow to use our weather pages